Location: Mohawk View
(42.7837°N, 73.7885°W)
Time: 01:38:00
(UTC+00:00)

IDEFIX/ARIANE 42P - Pass Details

Date: 17 June 2021
Orbit: 784 x 803 km, 98.4° (Epoch: 02 August)

Event Time Altitude Azimuth Distance (km) Brightness Sun altitude
Rises 08:08:29 0° 8° (N) 3,317 6.8 -10.4°
Reaches altitude 10° 08:10:52 10° 4° (N) 2,380 5.8 -10.1°
Maximum altitude 08:15:57 52° 289° (WNW) 988 2.9 -9.4°
Enters shadow 08:20:56 10° 214° (SW) 2,339 4.4 -8.8°
